• Join FlightAware (Why Join?)
  • Login
  • US Flag 
 
07:44PM EST


 

Airport Tracker/Info


-or-


 

Live Flight TrackerFlight Track Log ✈ ENY3086 ✈ 31-Aug-2014 ✈ KORD - KBNA

Flight Track Log - Related Links

Times and Time Zones

All times are in EDT time to prevent confusion due to time zone crossing. See the ENY3086 flight status page for this flight to view local times or setup timezone preferences in your user account.

Time Position Orientation Groundspeed Altitude Reporting Facility
EDT Latitude Longitude Course Direction KTS MPH feet Rate Location/Type
06:48PM 41.9167 -87.9333 184° South 205 236 2,900  Level Chicago TRACON
06:49PM 41.8500 -87.9167 169° South 257 296 4,400 1,920 Climbing Chicago TRACON
06:50PM 41.6319 -87.8833 180° South  Level FlightAware Approximate
06:50PM 41.7994 -87.9153 179° South 259 298 6,200  Level Chicago Center
06:51PM 41.5200 -87.8787 176° South  Level FlightAware Approximate
06:51PM 41.7125 -87.9058 175° South 290 334 9,200  Level Chicago Center
06:52PM 41.4084 -87.8675 176° South  Level FlightAware Approximate
06:52PM 41.6281 -87.8989 176° South 306 352 12,200  Level Chicago Center
06:53PM 41.3058 -87.8761 184° South  Level FlightAware Approximate
06:53PM 41.5447 -87.8911 176° South 305 351 14,400  Level Chicago Center
06:54PM 41.4522 -87.8814 175° South 312 359 16,800 2,100 Climbing Chicago Center
06:55PM 41.3614 -87.8817 180° South 320 368 18,800 1,920 Climbing Chicago Center
06:56PM 41.2675 -87.8908 184° South 327 376 20,800 1,920 Climbing Chicago Center
06:57PM 41.1717 -87.8914 180° South 339 390 22,800 1,800 Climbing Chicago Center
06:58PM 41.0744 -87.8878 178° South 343 395 24,600 1,560 Climbing Chicago Center
06:59PM 40.9725 -87.8850 179° South 357 411 26,100 1,320 Climbing Chicago Center
07:01PM 40.7603 -87.8642 176° South 391 450 28,800 900 Climbing Chicago Center
07:02PM 40.6458 -87.8431 172° South 413 475 29,000 60 Climbing Chicago Center
07:03PM 40.4950 -87.8147 172° South 451 519 29,000  Level Chicago Center
07:04PM 40.3639 -87.7900 172° South 471 542 29,000  Level Chicago Center
07:06PM 40.1206 -87.7453 172° South 473 544 29,000  Level Indianapolis Center
07:07PM 39.9689 -87.7169 172° South 471 542 29,000  Level Chicago Center
07:08PM 39.8617 -87.6978 172° South 471 542 29,000  Level Indianapolis Center
07:09PM 39.7306 -87.6750 172° South 474 545 29,000  Level Indianapolis Center
07:10PM 39.6019 -87.6508 172° South 473 544 29,000  Level Indianapolis Center
07:11PM 39.4469 -87.6222 172° South 473 544 29,000  Level Indianapolis Center
07:12PM 39.3161 -87.5989 172° South 473 544 29,000  Level Indianapolis Center
07:13PM 39.1869 -87.5758 172° South 473 544 29,000  Level Indianapolis Center
07:14PM 39.0706 -87.5542 172° South 473 544 29,000  Level Indianapolis Center
07:15PM 38.9156 -87.5269 172° South 472 543 29,000  Level Indianapolis Center
07:16PM 38.7858 -87.5047 172° South 472 543 29,000  Level Indianapolis Center
07:17PM 38.6575 -87.4833 173° South 470 541 29,000  Level Indianapolis Center
07:18PM 38.5281 -87.4597 172° South 468 539 29,000  Level Indianapolis Center
07:19PM 38.4003 -87.4383 173° South 468 539 29,000  Level Indianapolis Center
07:20PM 38.2722 -87.4156 172° South 468 539 29,000  Level Indianapolis Center
07:21PM 38.1439 -87.3942 173° South 468 539 29,000  Level Indianapolis Center
07:22PM 38.0172 -87.3700 171° South 468 539 29,000  Level Indianapolis Center
07:23PM 37.8647 -87.3431 172° South 465 535 29,000 -840 Level Indianapolis Center
07:24PM 37.7381 -87.3225 173° South 465 535 27,300 -1,860 Descending Indianapolis Center
07:25PM 37.6108 -87.3008 172° South 462 532 25,300 -1,980 Descending Indianapolis Center
07:26PM 37.4819 -87.2786 172° South 460 529 23,300 -1,980 Descending Indianapolis Center
07:27PM 37.3564 -87.2564 172° South 455 524 21,300 -1,920 Descending Indianapolis Center
07:28PM 37.2769 -87.2342 167° South 442 509 20,000 -1,860 Descending Memphis Center
07:29PM 37.1600 -87.1981 166° South 434 499 18,100 -1,800 Descending Memphis Center
07:30PM 37.0472 -87.1647 167° South 420 483 16,400 -1,740 Descending Memphis Center
07:31PM 36.9392 -87.1333 167° South 402 463 14,600 -1,920 Descending Memphis Center
07:32PM 36.8164 -87.0961 166° South 389 448 12,600 -1,800 Descending Memphis Center
07:33PM 36.7247 -87.0411 154° Southeast 368 423 11,000 -1,500 Descending Memphis Center
07:34PM 36.6433 -86.9917 154° Southeast 331 381 9,600 -1,320 Descending Memphis Center
07:35PM 36.5700 -86.9467 154° Southeast 299 344 8,300 -1,440 Descending Memphis Center
07:36PM 36.4964 -86.9019 154° Southeast 295 339 6,700 -1,560 Descending Memphis Center
07:37PM 36.4369 -86.8392 140° Southeast 286 329 5,200 -1,560 Descending Memphis Center
07:38PM 36.3925 -86.7575 124° Southeast 281 323 3,600 -1,140 Descending Memphis Center
07:39PM 36.3467 -86.6797 126° Southeast 277 319 3,000 -300 Descending Memphis Center
07:40PM 36.2928 -86.6208 139° Southeast 264 304 3,000 -240 Level Memphis Center
07:41PM 36.2367 -86.6378 194° South 214 246 2,600 -720 Descending Memphis Center
07:42PM 36.1889 -86.6583 199° South 186 214 1,600 -840 Descending Memphis Center
07:43PM 36.1550 -86.6722 198° South 146 168 1,000 -480 Descending Memphis Center
07:44PM 36.1228 -86.6844 197° South 140 161 700 -300 Descending Memphis Center